This is the latest recevied weather packets stored in our database for station/object W3JGB. If no packets are shown the sender has not sent any weather packets the latest 10 day(s).
| Time | Temp. | Humidity | Pressure | Rain* | Wind** | Luminosity | Snow |
|---|---|---|---|---|---|---|---|
| 1777944188 | 15.56° C | 69% | 1007.4 hPa | 0 mm | - | 0 W/m² | - |
| 1777943884 | 15.56° C | 66% | 1007.4 hPa | 0 mm | - | 0 W/m² | - |
| 1777943581 | 15.56° C | 69% | 1007.5 hPa | 0 mm | - | 0 W/m² | - |
| 1777943277 | 16.11° C | 66% | 1007.3 hPa | 0 mm | - | 0 W/m² | - |
| 1777942973 | 16.67° C | 65% | 1007.3 hPa | 0 mm | - | 0 W/m² | - |
| 1777942669 | 17.22° C | 65% | 1007.2 hPa | 0 mm | - | 0 W/m² | - |
| 1777942366 | 17.22° C | 61% | 1007.5 hPa | 0 mm | - | 0 W/m² | - |
| 1777942064 | 17.78° C | 59% | 1007.2 hPa | 0 mm | - | 0 W/m² | - |
| 1777941759 | 18.33° C | 53% | 1006.9 hPa | 0 mm | - | 0 W/m² | - |
| 1777941457 | 18.89° C | 54% | 1007 hPa | 0 mm | - | 0 W/m² | - |
| 1777941155 | 18.89° C | 54% | 1007.2 hPa | 0 mm | - | 0 W/m² | - |
| 1777940851 | 18.89° C | 52% | 1006.8 hPa | 0 mm | - | 0 W/m² | - |
| 1777940548 | 19.44° C | 52% | 1006.7 hPa | 0 mm | - | 0 W/m² | - |
| 1777940246 | 19.44° C | 53% | 1006.8 hPa | 0 mm | - | 0 W/m² | - |
| 1777939943 | 19.44° C | 51% | 1006.7 hPa | 0 mm | - | 0 W/m² | - |
| 1777939640 | 20° C | 49% | 1006.7 hPa | 0 mm | - | 0 W/m² | - |
| 1777939338 | 20° C | 48% | 1006.7 hPa | 0 mm | - | 2 W/m² | - |
| 1777939034 | 20° C | 49% | 1006.6 hPa | 0 mm | - | 4 W/m² | - |
| 1777938730 | 20.56° C | 49% | 1006.5 hPa | 0 mm | - | 7 W/m² | - |
| 1777938428 | 21.11° C | 47% | 1006.7 hPa | 0 mm | - | 11 W/m² | - |
| 1777938125 | 21.11° C | 49% | 1006.6 hPa | 0 mm | - | 19 W/m² | - |
| 1777937821 | 21.11° C | 45% | 1006.5 hPa | 0 mm | - | 16 W/m² | - |
| 1777937517 | 21.11° C | 48% | 1006.5 hPa | 0 mm | - | 17 W/m² | - |
| 1777937214 | 21.11° C | 47% | 1006.2 hPa | 0 mm | - | 25 W/m² | - |
| 1777936911 | 21.11° C | 49% | 1006.2 hPa | 0 mm | - | 36 W/m² | - |
* Rain latest hour (hover to see other rain measurements)
** Current wind speed in m/s (hover to see current wind gust speed)